STARLINK-32766 (62574 NORAD) Tracking and Keplerian Element Data

This shows tracking and keplerian element data for the satellite.

Feedback or suggestion? Click here.




ElementValue
Catalog62574
NameSTARLINK-32766
Epoch Orbit499
Epoch Day35.16668981
Epoch Year2025
RAAN27.5736
Inclination43.0005
Eccentricity0.0001373
Argument of Perigee262.3743
Mean Anonmoly94.9116
Mean Motion15.50600307
Decay Rate-0.00059914
L11 62574U 25006W 25035.16668981 -.00059914 00000+0 -10225-2 0 9998
L22 62574 43.0005 27.5736 0001373 262.3743 94.9116 15.50600307 4998



Live tracking and technical data element details for STARLINK-32766 (NORAD 62574). STARLINK-32766 can be tracked NOW for your location showing map with azimuth and elevation plus other details from your city location.







IsCatalogInMostPopularTable: catalog: 62574, numindb: 15
Update: records affected: 1



GetName: 62574 STARLINK-32766

Hit Count: updated at: Sun, 18 May 2025 22:30:59 GMT